Torna al catalogo

STARLINK-30075

AttivoComunicazioniVLEO
NORAD 57616·PAYLOAD·🇺🇸 United States

Lanciato Aug 11, 2023 da Cape Canaveral Space Force Station

Loading…

Prossimi Passaggi (prossime 24 ore)

TLE

AggiornatoSource: CelesTrak SupGP

Epoca: Sep 15, 2026, 01:29 UTC

1 57616C 23119Q   26258.06229167  .00032062  00000+0  11609-2 0  2586
2 57616  43.0032  91.7191 0001979 268.9763  69.7124 15.27572949    15

Traccia STARLINK-30075 in tempo reale con AllMySat

Download on the App Store